[[{"header":{"parameterUnit":"m.s-1","parameterCategory":1,"la1":30.2991,"la2":30.254,"lo1":-89.0895,"lo2":-89.0444,"dy":0.0017,"dx":0.0017,"nx":28,"ny":28,"refTime":"2025-01-09T09:00:00:Z","depth":0,"parameterNumber":2,"parameterNumberName":"U-component_of_WINDS"},"data":[0,0,0,0,0,0,0,0,0,0,0,0,0,0,0,0,0,0,0,0,0,0,0,0,0,0,0,0,0,0,0,0,0,0,0,0,0,0,0,0,0,0,0,0,0,0,0,0,0,0,0,0,0,0,0,0,0,0,-2.8961,-2.8962,0,-2.9031,-2.9032,-2.9032,-2.8922,-2.8919,-2.8915,-2.8911,-2.8985,-2.899,-2.8996,0,0,0,0,0,0,0,0,0,0,0,0,0,-2.8733,-2.8738,-2.8961,-2.8962,-2.8963,-2.9031,-2.9032,-2.9033,-2.8923,-2.8918,-2.8914,-2.891,-2.8983,-2.8989,-2.8996,0,0,0,0,0,0,0,0,0,0,0,0,0,-2.8821,-2.874,-2.8961,-2.8916,-2.8913,-2.903,-2.9032,-2.9033,-2.8924,-2.8918,-2.8913,-2.8907,-2.8981,-2.8989,-2.8997,-2.9162,0,0,-2.9022,-2.9026,0,0,0,0,0,0,0,0,-2.8816,-2.8829,-2.8922,-2.892,-2.8916,-2.8962,-2.8978,-2.9076,-2.8926,-2.892,-2.8911,-2.8905,-2.8982,-2.899,-2.9015,-2.9165,-2.9168,-2.9023,-2.9028,-2.9031,-2.9034,0,0,0,0,0,0,0,-2.881,-2.8826,-2.8989,-2.8923,-2.892,-2.8893,-2.8899,-2.8996,-2.8982,-2.892,-2.8912,-2.8922,-2.8979,-2.9008,-2.9016,-2.917,-2.9023,-2.903,-2.9035,-2.9038,-2.9457,-2.9462,0,0,0,0,0,0,-2.8809,-2.8821,-2.8986,-2.8991,-2.8851,-2.8902,-2.8908,-2.8953,-2.8981,-2.8979,-2.8927,-2.8916,-2.8996,-2.9007,-2.9019,-2.9213,-2.9031,-2.9039,-2.9044,-2.945,-2.9458,-2.9465,0,0,0,0,0,0,-2.8805,-2.8825,-2.8984,-2.8904,-2.8922,-2.8912,-2.8963,-2.8957,-2.8986,-2.8986,-2.8983,-2.8958,-2.8992,-2.9007,-2.9127,-2.9214,-2.9043,-2.905,-2.9443,-2.9453,-2.9461,-2.9604,0,0,0,0,0,0,-2.8799,-2.8824,-2.8887,-2.8906,-2.8927,-2.9091,-2.8968,-2.8963,-2.9,-2.8987,-2.9015,-2.9014,-2.8989,-2.9115,-2.9135,-2.9222,-2.9057,-2.9435,-2.9447,-2.9458,-2.9591,-2.9616,-2.9638,0,0,0,0,0,-2.8791,-2.8925,-2.8891,-2.8911,-2.9005,-2.9096,-2.9108,-2.9076,-2.9008,-2.907,-2.907,-2.9013,-2.9201,-2.9128,-2.915,-2.9241,-2.943,-2.9444,-2.9457,-2.958,-2.9612,-2.9638,0,0,0,0,0,0,-2.8918,-2.8927,-2.8889,-2.9033,-2.9065,-2.9078,-2.9156,-2.911,-2.9163,-2.9149,-2.9107,-2.9115,-2.9243,-2.9253,-2.9172,-2.9401,-2.9304,-2.9323,-2.939,-2.9419,-2.9443,-2.9438,-2.9064,0,0,0,0,0,-2.8962,-2.9035,-2.9039,-2.9166,-2.9183,-2.9167,-2.9206,-2.9178,-2.921,-2.9223,-2.9231,-2.9264,-2.933,-2.9375,-2.9436,-2.9591,-2.9595,-2.9664,-2.9688,-2.9707,-2.9725,-2.9806,-2.9837,-2.951,-2.951,-2.951,0,0,-2.9055,-2.9069,-2.9118,-2.9192,-2.9213,-2.929,-2.918,-2.9266,-2.9322,-2.9236,-2.935,-2.9357,-2.9391,-2.9529,-2.959,-2.9541,-2.9815,-2.9725,-2.974,-2.9747,-2.9824,-2.9855,-2.9882,-2.952,-2.9518,-2.9516,0,0,-2.9264,-2.9282,-2.9389,-2.9412,-2.9445,-2.9433,-2.9459,-2.9478,-2.948,-2.9592,-2.9529,-2.9595,-2.971,-2.9737,-2.9766,-2.9982,-2.9931,-3.0003,-3.0127,-3.0207,-3.0233,-3.0256,-3.0333,-3.0361,-3.002,-3.002,-3.002,0,-2.9376,-2.9489,-2.945,-2.9541,-2.9574,-2.9498,-2.9606,-2.9631,-2.9683,-2.9708,-2.9652,-2.9794,-2.9811,-2.9954,-3.0007,-3.0032,-3.006,-3.0001,-3.0232,-3.0255,-3.0275,-3.0348,-3.0378,-3.0029,-3.0028,-3.0027,-3.0026,0,-2.9625,-2.9704,-2.9786,-2.9837,-2.988,-2.9979,-2.9955,-3.0003,-2.9971,-2.9965,-3.008,-3.0098,-3.0161,-3.0192,-3.0162,-3.0331,-3.0299,-3.0239,-3.0141,-3.0316,-3.0384,-3.0411,-3.0041,-3.0038,-3.0035,-3.0033,0,0,-2.9918,-2.9944,-2.9975,-2.9997,-3.0026,-3.0087,-3.0181,-3.0242,-3.0284,-3.0321,-3.04,-3.0498,-3.0441,-3.0474,-3.0446,-3.0516,-3.0686,-3.0447,-3.0447,-3.0491,-3.0872,-3.0918,-3.0951,-3.0652,-3.0657,-3.0661,-3.0869,0,-3.0126,-3.029,-3.0256,-3.0416,-3.0489,-3.0416,-3.0498,-3.0525,-3.0522,-3.0582,-3.0577,-3.0648,-3.0568,-3.0587,-3.0653,-3.0652,-3.0762,-3.0636,-3.0725,-3.0729,-3.072,-3.0987,-3.1036,-3.1232,-3.0896,-3.09,-3.0903,0,-3.0392,-3.0438,-3.0605,-3.0622,-3.0651,-3.0726,-3.0777,-3.0836,-3.0865,-3.0857,-3.0892,-3.085,-3.0944,-3.0843,-3.0971,-3.0886,-3.092,-3.0924,-3.0931,-3.0939,-3.0828,-3.1003,-3.1293,-3.1323,-3.0945,-3.0942,-3.0939,0,-3.0589,-3.0693,-3.0806,-3.0827,-3.0849,-3.0903,-3.0915,-3.0938,-3.0976,-3.1021,-3.1045,-3.11,-3.1131,-3.1175,-3.1149,-3.1078,-3.1282,-3.1179,-3.1278,-3.1279,-3.1326,-3.1324,-3.1627,-3.1347,-3.1346,-3.1346,-3.1345,0,-3.0826,-3.0932,-3.0895,-3.0965,-3.108,-3.104,-3.1156,-3.1159,-3.1179,-3.1248,-3.1188,-3.1254,-3.1215,-3.1278,-3.1258,-3.1367,-3.1382,-3.1378,-3.1371,-3.1384,-3.1385,-3.1407,-3.1393,-3.1353,-3.1352,-3.135,-3.1349,0,-3.1067,-3.1047,-3.1166,-3.1176,-3.1181,-3.1266,-3.1274,-3.1339,-3.1329,-3.1417,-3.1435,-3.1421,-3.1491,-3.1469,-3.1546,-3.1532,-3.167,-3.1646,-3.1661,-3.1655,-3.1756,-3.1747,-3.2085,-3.2127,-3.1819,-3.1822,-3.1824,0,-3.1221,-3.1299,-3.1318,-3.1359,-3.1375,-3.1443,-3.148,-3.1443,-3.1485,-3.1522,-3.1583,-3.1648,-3.1698,-3.1814,-3.181,-3.1868,-3.1845,-3.1959,-3.1853,-3.1863,-3.1847,-3.1843,-3.185,-3.1981,-3.1985,-3.1987,-3.199,0,-3.1494,-3.148,-3.1536,-3.159,-3.1636,-3.1676,-3.1711,-3.1748,-3.1713,-3.1763,-3.1834,-3.1873,-3.1949,-3.2015,-3.2066,-3.2078,-3.2029,-3.2023,-3.2049,-3.2063,-3.2068,-3.2067,-3.1719,-3.2016,-3.2013,-3.2011,-3.201,-3.2009,-3.1696,-3.1763,-3.1785,-3.185,-3.1872,-3.1905,-3.1966,-3.1963,-3.2021,-3.2081,-3.2055,-3.2137,-3.2161,-3.2225,-3.2244,-3.2307,-3.2263,-3.2301,-3.2311,-3.2321,-3.2334,-3.2057,-3.2316,-3.2316,-3.2315,-3.2314,-3.2314,0,-3.1967,-3.1978,-3.2037,-3.2087,-3.2138,-3.2085,-3.212,-3.2166,-3.2238,-3.2265,-3.2315,-3.2396,-3.2458,-3.2459,-3.2516,-3.2567,-3.2546,-3.2583,-3.258,-3.2583,-3.237,-3.2341,-3.2599,-3.2599,-3.2599,-3.2599,-3.2599,-3.2599,-3.2114,-3.2224,-3.2212,-3.2331,-3.234,-3.2419,-3.2443,-3.2474,-3.2495,-3.2587,-3.2638,-3.2637,-3.2654,-3.2712,-3.2766,-3.2764,-3.2789,-3.2836,-3.2826,-3.2627,-3.2598,-3.2571,-3.2545,-3.2841,-3.2841,-3.3034,-3.3035,-3.3037]},{"header":{"parameterUnit":"m.s-1","parameterCategory":1,"la1":30.2991,"la2":30.254,"lo1":-89.0895,"lo2":-89.0444,"dy":0.0017,"dx":0.0017,"nx":28,"ny":28,"refTime":"2025-01-09T09:00:00:Z","depth":0,"parameterNumber":3,"parameterNumberName":"V-component_of_WINDS"},"data":[0,0,0,0,0,0,0,0,0,0,0,0,0,0,0,0,0,0,0,0,0,0,0,0,0,0,0,0,0,0,0,0,0,0,0,0,0,0,0,0,0,0,0,0,0,0,0,0,0,0,0,0,0,0,0,0,0,0,-4.7811,-4.7812,0,-4.7892,-4.7893,-4.7893,-4.7828,-4.7826,-4.7823,-4.782,-4.7899,-4.7904,-4.7909,0,0,0,0,0,0,0,0,0,0,0,0,0,-4.7595,-4.7599,-4.7811,-4.7812,-4.7813,-4.7892,-4.7893,-4.7894,-4.7829,-4.7826,-4.7822,-4.7819,-4.7898,-4.7903,-4.7909,0,0,0,0,0,0,0,0,0,0,0,0,0,-4.7683,-4.76,-4.7811,-4.779,-4.7789,-4.7891,-4.7893,-4.7894,-4.783,-4.7825,-4.7821,-4.7818,-4.7896,-4.7903,-4.791,-4.8035,0,0,-4.7931,-4.7934,0,0,0,0,0,0,0,0,-4.7678,-4.7691,-4.7792,-4.7792,-4.7791,-4.7846,-4.7845,-4.7941,-4.7831,-4.7814,-4.782,-4.7815,-4.7885,-4.7892,-4.7916,-4.8039,-4.8043,-4.7932,-4.7936,-4.7939,-4.7941,0,0,0,0,0,0,0,-4.7672,-4.7687,-4.7843,-4.7793,-4.7793,-4.7775,-4.7783,-4.7863,-4.7871,-4.7815,-4.7811,-4.7821,-4.7883,-4.791,-4.7918,-4.8044,-4.7932,-4.7938,-4.7942,-4.7945,-4.827,-4.8275,0,0,0,0,0,0,-4.7669,-4.7683,-4.784,-4.7845,-4.7723,-4.7782,-4.7791,-4.7832,-4.787,-4.7872,-4.7825,-4.7818,-4.79,-4.791,-4.792,-4.8068,-4.7939,-4.7946,-4.795,-4.8266,-4.8271,-4.8276,0,0,0,0,0,0,-4.7664,-4.7683,-4.7837,-4.7763,-4.7781,-4.779,-4.7837,-4.7836,-4.7862,-4.7878,-4.7878,-4.7851,-4.7897,-4.791,-4.8007,-4.807,-4.7949,-4.7955,-4.8261,-4.8268,-4.8274,-4.8366,0,0,0,0,0,0,-4.7658,-4.7682,-4.7732,-4.7764,-4.7785,-4.7924,-4.7841,-4.7841,-4.7875,-4.7867,-4.7902,-4.7904,-4.7895,-4.7997,-4.8014,-4.8078,-4.7961,-4.8255,-4.8264,-4.8272,-4.8358,-4.8375,-4.839,0,0,0,0,0,-4.7651,-4.7754,-4.7735,-4.7754,-4.7847,-4.7928,-4.7939,-4.7928,-4.7881,-4.7929,-4.7938,-4.7903,-4.8061,-4.8007,-4.8026,-4.8093,-4.8251,-4.8261,-4.8271,-4.835,-4.8372,-4.839,0,0,0,0,0,0,-4.7728,-4.7758,-4.7737,-4.7854,-4.7889,-4.7917,-4.7978,-4.7952,-4.8,-4.799,-4.7973,-4.7981,-4.8082,-4.8097,-4.8037,-4.8215,-4.8148,-4.8162,-4.8202,-4.8222,-4.8238,-4.8232,-4.7966,0,0,0,0,0,-4.7759,-4.7823,-4.7845,-4.7947,-4.7965,-4.7969,-4.8003,-4.7992,-4.8027,-4.8041,-4.8057,-4.8091,-4.8148,-4.8186,-4.8239,-4.8359,-4.8365,-4.8414,-4.843,-4.8444,-4.8456,-4.8518,-4.854,-4.8309,-4.8309,-4.8309,0,0,-4.7823,-4.7847,-4.7889,-4.7963,-4.7988,-4.8053,-4.7982,-4.8054,-4.8102,-4.8051,-4.8143,-4.8157,-4.8193,-4.8301,-4.835,-4.8317,-4.8521,-4.8457,-4.8467,-4.8472,-4.8531,-4.8553,-4.8572,-4.8316,-4.8315,-4.8314,0,0,-4.7972,-4.7998,-4.8084,-4.8111,-4.8151,-4.8153,-4.8173,-4.8205,-4.8212,-4.8304,-4.8267,-4.8322,-4.8422,-4.8448,-4.8475,-4.8633,-4.8601,-4.865,-4.8736,-4.8797,-4.8815,-4.8831,-4.8885,-4.8905,-4.8663,-4.8663,-4.8663,0,-4.8046,-4.8145,-4.8132,-4.8207,-4.8239,-4.8197,-4.8283,-4.8309,-4.8364,-4.8386,-4.8349,-4.8471,-4.8493,-4.8606,-4.8644,-4.8668,-4.8689,-4.8646,-4.8814,-4.8829,-4.8844,-4.8896,-4.8916,-4.8669,-4.8668,-4.8667,-4.8667,0,-4.8233,-4.8301,-4.8366,-4.8421,-4.846,-4.854,-4.8537,-4.8579,-4.8563,-4.8567,-4.866,-4.8685,-4.8741,-4.8767,-4.8752,-4.8877,-4.8855,-4.8816,-4.8748,-4.8872,-4.892,-4.894,-4.8677,-4.8675,-4.8673,-4.8672,0,0,-4.8434,-4.848,-4.8503,-4.8527,-4.8567,-4.8618,-4.8695,-4.8752,-4.8786,-4.8825,-4.8888,-4.8972,-4.8935,-4.8965,-4.8953,-4.9006,-4.9127,-4.896,-4.896,-4.8989,-4.9264,-4.9292,-4.9316,-4.9106,-4.911,-4.9113,-4.926,0,-4.8584,-4.872,-4.8709,-4.8836,-4.8898,-4.8858,-4.8924,-4.8955,-4.8961,-4.9012,-4.9018,-4.9077,-4.9025,-4.9043,-4.9094,-4.9102,-4.9182,-4.9091,-4.9162,-4.9165,-4.9154,-4.9341,-4.9372,-4.951,-4.9279,-4.9282,-4.9285,0,-4.8778,-4.8824,-4.8958,-4.8986,-4.9012,-4.9072,-4.9121,-4.9172,-4.9205,-4.9205,-4.9238,-4.9216,-4.9291,-4.9222,-4.9324,-4.9262,-4.9291,-4.9298,-4.9303,-4.9309,-4.9232,-4.9351,-4.9554,-4.9574,-4.9314,-4.9312,-4.931,0,-4.891,-4.9005,-4.9096,-4.9118,-4.9154,-4.9197,-4.9214,-4.9243,-4.9276,-4.9319,-4.934,-4.9391,-4.9418,-4.9457,-4.9448,-4.9399,-4.9551,-4.9482,-4.9552,-4.9552,-4.9585,-4.9583,-4.9795,-4.9605,-4.9605,-4.9605,-4.9604,0,-4.9078,-4.9161,-4.9156,-4.9212,-4.9302,-4.9288,-4.9378,-4.9389,-4.9415,-4.9471,-4.9439,-4.9492,-4.9477,-4.9529,-4.9523,-4.9607,-4.962,-4.962,-4.9617,-4.9623,-4.9623,-4.9641,-4.963,-4.961,-4.9609,-4.9608,-4.9607,0,-4.924,-4.924,-4.9337,-4.9363,-4.9372,-4.9437,-4.9458,-4.951,-4.9513,-4.9584,-4.96,-4.9604,-4.9663,-4.9658,-4.9724,-4.972,-4.9823,-4.9809,-4.9813,-4.9809,-4.9879,-4.9872,-5.0109,-5.0138,-4.9931,-4.9933,-4.9935,0,-4.9347,-4.941,-4.9443,-4.9479,-4.9498,-4.9557,-4.9591,-4.9578,-4.9615,-4.9656,-4.9702,-4.9758,-4.9803,-4.9899,-4.9906,-4.9956,-4.9942,-5.0022,-4.995,-4.9952,-4.9942,-4.9938,-4.9943,-5.0036,-5.0038,-5.004,-5.0042,0,-4.9537,-4.9533,-4.9585,-4.9636,-4.9677,-4.9717,-4.9752,-4.9783,-4.9774,-4.9816,-4.9876,-4.9911,-4.9978,-5.0034,-5.0081,-5.0096,-5.0067,-5.0064,-5.0083,-5.0089,-5.0087,-5.0087,-4.985,-5.0059,-5.0057,-5.0056,-5.0055,-5.0054,-4.9674,-4.9727,-4.9758,-4.9815,-4.9841,-4.9874,-4.9924,-4.9933,-4.9983,-5.0038,-5.0027,-5.0094,-5.0123,-5.0183,-5.0203,-5.0254,-5.0225,-5.0252,-5.0259,-5.0265,-5.0273,-5.008,-5.0262,-5.0262,-5.0261,-5.0261,-5.026,0,-4.986,-4.9878,-4.9931,-4.9982,-5.0026,-4.9996,-5.0033,-5.0072,-5.0132,-5.0162,-5.0206,-5.0274,-5.0327,-5.0339,-5.0389,-5.0428,-5.0415,-5.0441,-5.0438,-5.0441,-5.0297,-5.0275,-5.045,-5.045,-5.045,-5.045,-5.045,-5.045,-4.9962,-5.005,-5.005,-5.0149,-5.0165,-5.0232,-5.0255,-5.0285,-5.0309,-5.0387,-5.0431,-5.0438,-5.046,-5.0511,-5.0558,-5.0559,-5.0579,-5.061,-5.0606,-5.0471,-5.0452,-5.0433,-5.0413,-5.0614,-5.0614,-5.0746,-5.0747,-5.0748]}]]